{"data":{"norad_id":62502,"epoch":"2026-05-24T16:13:00.564672Z","epoch_age_seconds":96322,"freshness":"FRESH","line1":"1 62502U 25003R   26144.67570098  .00015651  00000+0  57699-3 0  9990","line2":"2 62502  43.0015 219.7570 0001925 275.1880  84.8752 15.27583845 78174","mean_motion":15.27583845,"eccentricity":0.0001925,"inclination_deg":43.0015,"raan_deg":219.757,"arg_perigee_deg":275.188,"mean_anomaly_deg":84.8752,"bstar":0.00057699,"rev_number":7817,"period_min":94.266511439835,"perigee_km":481.71680664339,"apogee_km":484.35835885775,"semimajor_km":6861.1745827506,"source":"CELESTRAK","updated_at":"2026-05-25T13:38:19.699533Z"}}